Grizzly Air Cargo 5385


PACD
Cold Bay Airport
Cold Bay, Alaska, US
PANC
Ted Stevens Anchorage International Airport
Anchorage, Alaska, US

Activity Log

Date Flight Route Aircraft Duration
No Flights Yet

Route Details

Aircraft Information
Primary: Saab 340AF
Backup: Not Available
Route Data
Distance: 623nm
Sched. Duration: 1h 50m
Avg. Duration: 0h 00m (-150m)
Times Flown: 0
Recm'd Route: CDB J115 TED
Planned Altitude: 17,000ft
Origin Wx: PACD 190753Z AUTO 14010KT 10SM FEW120 M06/M09 A2965 RMK AO2 SLP044 T10561094 TSNO $
Dest. Wx: PANC 190753Z 16009KT 7SM -RA FEW006 BKN011 OVC020 01/00 A2912 RMK AO2 SLP862 P0003 T00110000
Notes:

Financial History
Total Freight: 0lbs
Average Load: 0lbs/flt
Fuel Used: 0lbs
Avg. Fuel Used: 0lbs/flt
Fuel Expense: $0
Avg. Fuel Expense: $0
Avg. Fuel Cost: $0/lbs
Total Gross Income: $0
Pilot Pay: $0
Total Expenses: $0
Total Revenue: $0
Average Revenue: $0